| time (UTC) | temp C | wind direction | speed KPH | gust KPH | rain 1hr cm | rain 24hr cm | rain mn cm | humidity % | barometer mb |
| 20260503025116 | 13 | 0.0 | 0.0 | 0.00 | 0.00 | 0.00 | 80 | 1011.9 | |
| 20260503024115 | 13 | 0.0 | 0.0 | 0.00 | 0.00 | 0.00 | 79 | 1011.9 | |
| 20260503023115 | 13 | 0.0 | 0.0 | 0.00 | 0.00 | 0.00 | 78 | 1011.8 | |
| 20260503022115 | 13 | 0.0 | 0.0 | 0.00 | 0.00 | 0.00 | 77 | 1011.7 | |
| 20260503021116 | 14 | 0.0 | 0.0 | 0.00 | 0.00 | 0.00 | 76 | 1011.6 | |
| 20260503020136 | 15 | 0.0 | 0.0 | 0.00 | 0.00 | 0.00 | 75 | 1011.8 | |
| 20260503015116 | 15 | 0.0 | 0.0 | 0.00 | 0.00 | 0.00 | 74 | 1011.7 | |
| 20260503014118 | 15 | 0.0 | 0.0 | 0.00 | 0.00 | 0.00 | 73 | 1011.8 | |
| 20260503013118 | 16 | 0.0 | 0.0 | 0.00 | 0.00 | 0.00 | 71 | 1011.8 | |
| 20260503012116 | 16 | 0.0 | 0.0 | 0.00 | 0.00 | 0.00 | 71 | 1011.7 | |
| 20260503011116 | 16 | 0.0 | 0.0 | 0.00 | 0.00 | 0.00 | 70 | 1011.7 | |
| 20260503010214 | 16 | 0.0 | 0.0 | 0.00 | 0.00 | 0.00 | 70 | 1011.7 | |
| 20260503005158 | 17 | 0.0 | 0.0 | 0.00 | 0.00 | 0.00 | 70 | 1011.6 | |
| 20260503004115 | 17 | 0.0 | 0.0 | 0.00 | 0.00 | 0.00 | 69 | 1011.6 | |
| 20260503003122 | 17 | 0.0 | 0.0 | 0.00 | 0.00 | 0.00 | 69 | 1011.7 | |
| 20260503002116 | 17 | 0.0 | 0.0 | 0.00 | 0.00 | 0.00 | 70 | 1011.7 | |
| 20260503001136 | 17 | 0.0 | 0.0 | 0.00 | 0.00 | 0.00 | 71 | 1011.7 | |
| 20260503000118 | 17 | 0.0 | 0.0 | 0.00 | 0.00 | 0.00 | 71 | 1011.7 | |
| 20260502235138 | 17 | 0.0 | 0.0 | 0.00 | 0.00 | 0.00 | 70 | 1011.8 | |
| 20260502234118 | 17 | 0.0 | 0.0 | 0.00 | 0.00 | 0.00 | 69 | 1011.8 | |
| 20260502233116 | 17 | 0.0 | 0.0 | 0.00 | 0.00 | 0.00 | 70 | 1011.8 | |
| 20260502232118 | 17 | 0.0 | 1.6 | 0.00 | 0.00 | 0.00 | 71 | 1011.9 | |
| 20260502231118 | 17 | 0.0 | 0.0 | 0.00 | 0.00 | 0.00 | 71 | 1012.1 | |
| 20260502230205 | 17 | 0.0 | 0.0 | 0.00 | 0.00 | 0.00 | 69 | 1012.4 | |
| 20260502225117 | 17 | 0.0 | 0.0 | 0.00 | 0.00 | 0.00 | 69 | 1012.6 | |
| 20260502224117 | 18 | 0.0 | 0.0 | 0.00 | 0.00 | 0.00 | 68 | 1012.7 | |
| 20260502223138 | 18 | 0.0 | 0.0 | 0.00 | 0.00 | 0.00 | 68 | 1012.8 | |
| 20260502222117 | 18 | 0.0 | 0.0 | 0.00 | 0.00 | 0.00 | 67 | 1013.0 | |
| 20260502221118 | 18 | 0.0 | 0.0 | 0.00 | 0.00 | 0.00 | 67 | 1013.1 | |
| 20260502220118 | 19 | 0.0 | 0.0 | 0.00 | 0.00 | 0.00 | 67 | 1013.3 | |
| 20260502215117 | 18 | 0.0 | 0.0 | 0.00 | 0.00 | 0.00 | 68 | 1013.5 | |
| 20260502214117 | 18 | 0.0 | 0.0 | 0.00 | 0.00 | 0.00 | 68 | 1013.6 | |
| 20260502213118 | 18 | 0.0 | 0.0 | 0.00 | 0.00 | 0.00 | 68 | 1013.6 | |
| 20260502212138 | 18 | 0.0 | 0.0 | 0.00 | 0.00 | 0.00 | 68 | 1013.6 | |
| 20260502211117 | 18 | 0.0 | 0.0 | 0.00 | 0.00 | 0.00 | 69 | 1013.7 | |
| 20260502210117 | 18 | 0.0 | 0.0 | 0.00 | 0.00 | 0.00 | 67 | 1013.9 | |
| 20260502205118 | 17 | 0.0 | 0.0 | 0.00 | 0.00 | 0.00 | 69 | 1014.0 | |
| 20260502204137 | 17 | 0.0 | 0.0 | 0.00 | 0.00 | 0.00 | 68 | 1014.1 | |
| 20260502203118 | 17 | 0.0 | 0.0 | 0.00 | 0.00 | 0.00 | 69 | 1014.4 | |
| 20260502202117 | 17 | 0.0 | 0.0 | 0.00 | 0.00 | 0.00 | 71 | 1014.6 | |
| 20260502201136 | 16 | 0.0 | 0.0 | 0.00 | 0.00 | 0.00 | 71 | 1014.8 | |
| 20260502200117 | 16 | 0.0 | 0.0 | 0.00 | 0.00 | 0.00 | 71 | 1014.9 | |
| 20260502195117 | 16 | 0.0 | 0.0 | 0.00 | 0.00 | 0.00 | 73 | 1015.1 | |
| 20260502194117 | 16 | 0.0 | 0.0 | 0.00 | 0.00 | 0.00 | 73 | 1015.1 | |
| 20260502193137 | 16 | 0.0 | 0.0 | 0.00 | 0.00 | 0.00 | 74 | 1015.2 | |
| 20260502192138 | 15 | 0.0 | 0.0 | 0.00 | 0.00 | 0.00 | 74 | 1015.2 | |
| 20260502191117 | 15 | 0.0 | 0.0 | 0.00 | 0.00 | 0.00 | 75 | 1015.4 | |
| 20260502185118 | 15 | 0.0 | 0.0 | 0.00 | 0.00 | 0.00 | 75 | 1015.4 | |
| 20260502184117 | 14 | 0.0 | 0.0 | 0.00 | 0.00 | 0.00 | 77 | 1015.5 | |
| 20260502182117 | 13 | 0.0 | 0.0 | 0.00 | 0.00 | 0.00 | 80 | 1015.7 | |
| 20260502181117 | 13 | 0.0 | 0.0 | 0.00 | 0.00 | 0.00 | 81 | 1015.6 | |
| 20260502180118 | 13 | 0.0 | 0.0 | 0.00 | 0.00 | 0.00 | 82 | 1015.5 | |
| 20260502170118 | 12 | 0.0 | 0.0 | 0.00 | 0.00 | 0.00 | 85 | 1015.0 | |
| 20260502164118 | 12 | 0.0 | 0.0 | 0.00 | 0.00 | 0.00 | 85 | 1015.0 | |
| 20260502163118 | 13 | 0.0 | 0.0 | 0.00 | 0.00 | 0.00 | 85 | 1015.1 | |
| 20260502162118 | 12 | 0.0 | 0.0 | 0.00 | 0.00 | 0.00 | 86 | 1015.1 | |
| 20260502161118 | 12 | 0.0 | 0.0 | 0.00 | 0.00 | 0.00 | 86 | 1015.1 | |
| 20260502160117 | 12 | 0.0 | 0.0 | 0.00 | 0.00 | 0.00 | 87 | 1015.0 | |
| 20260502152117 | 12 | 0.0 | 0.0 | 0.00 | 0.00 | 0.00 | 89 | 1014.8 | |
| 20260502151117 | 12 | 0.0 | 0.0 | 0.00 | 0.00 | 0.00 | 89 | 1014.7 | |
| 20260502150118 | 12 | 0.0 | 0.0 | 0.00 | 0.00 | 0.00 | 89 | 1014.5 | |
| 20260502140118 | 11 | 0.0 | 0.0 | 0.00 | 0.00 | 0.00 | 90 | 1014.5 | |
| 20260502130245 | 11 | 0.0 | 0.0 | 0.00 | 0.00 | 0.00 | 91 | 1014.3 | |
| 20260502123117 | 11 | 0.0 | 0.0 | 0.00 | 0.00 | 0.00 | 91 | 1013.8 | |
| 20260502122137 | 11 | 0.0 | 0.0 | 0.00 | 0.00 | 0.00 | 91 | 1013.9 | |
| 20260502121116 | 11 | 0.0 | 0.0 | 0.00 | 0.00 | 0.00 | 91 | 1013.9 | |
| 20260502120117 | 11 | 0.0 | 0.0 | 0.00 | 0.00 | 0.00 | 91 | 1013.9 | |
| 20260502115137 | 11 | 0.0 | 0.0 | 0.00 | 0.00 | 0.00 | 91 | 1013.9 | |
| 20260502114116 | 11 | 0.0 | 0.0 | 0.00 | 0.00 | 0.00 | 92 | 1013.7 | |
| 20260502113116 | 11 | 0.0 | 0.0 | 0.00 | 0.00 | 0.00 | 92 | 1013.7 | |
| 20260502112136 | 11 | 0.0 | 0.0 | 0.00 | 0.00 | 0.00 | 92 | 1013.8 | |
| 20260502111116 | 11 | 0.0 | 0.0 | 0.00 | 0.00 | 0.00 | 92 | 1013.7 | |
| 20260502110154 | 11 | 0.0 | 0.0 | 0.00 | 0.00 | 0.00 | 92 | 1013.9 | |
| 20260502105118 | 11 | 0.0 | 0.0 | 0.00 | 0.00 | 0.00 | 92 | 1013.9 | |
| 20260502104137 | 11 | 0.0 | 0.0 | 0.00 | 0.00 | 0.00 | 92 | 1013.9 | |
| 20260502103118 | 11 | 0.0 | 0.0 | 0.00 | 0.00 | 0.00 | 91 | 1014.0 | |
| 20260502102117 | 11 | 0.0 | 0.0 | 0.00 | 0.00 | 0.00 | 91 | 1014.0 | |
| 20260502101117 | 10 | 0.0 | 0.0 | 0.00 | 0.00 | 0.00 | 91 | 1014.0 | |
| 20260502100137 | 10 | 0.0 | 0.0 | 0.00 | 0.00 | 0.00 | 91 | 1014.0 | |
| 20260502091138 | 10 | 0.0 | 0.0 | 0.00 | 0.00 | 0.00 | 90 | 1014.3 | |
| 20260502090118 | 10 | 0.0 | 0.0 | 0.00 | 0.00 | 0.00 | 90 | 1014.3 | |
| 20260502071119 | 11 | 0.0 | 0.0 | 0.00 | 0.00 | 0.00 | 88 | 1014.8 | |
| 20260502065316 | 11 | 0.0 | 0.0 | 0.00 | 0.00 | 0.00 | 88 | 1014.8 | |
| 20260502064316 | 11 | 0.0 | 0.0 | 0.00 | 0.00 | 0.00 | 87 | 1014.8 | |
| 20260502063316 | 11 | 0.0 | 0.0 | 0.00 | 0.00 | 0.00 | 87 | 1014.8 | |
| 20260502062316 | 11 | 0.0 | 0.0 | 0.00 | 0.00 | 0.00 | 87 | 1014.9 | |
| 20260502061316 | 11 | 0.0 | 0.0 | 0.00 | 0.00 | 0.00 | 87 | 1014.9 | |
| 20260502060316 | 11 | 0.0 | 0.0 | 0.00 | 0.00 | 0.00 | 86 | 1014.9 | |
| 20260502055336 | 12 | 0.0 | 0.0 | 0.00 | 0.00 | 0.00 | 86 | 1014.9 | |
| 20260502054316 | 12 | 0.0 | 0.0 | 0.00 | 0.00 | 0.00 | 86 | 1014.8 | |
| 20260502053336 | 12 | 0.0 | 0.0 | 0.00 | 0.00 | 0.00 | 85 | 1014.7 | |
| 20260502052336 | 12 | 0.0 | 0.0 | 0.00 | 0.00 | 0.00 | 85 | 1014.8 | |
| 20260502051316 | 12 | 0.0 | 0.0 | 0.00 | 0.00 | 0.00 | 84 | 1014.7 | |
| 20260502050316 | 12 | 0.0 | 0.0 | 0.00 | 0.00 | 0.00 | 83 | 1014.7 | |
| 20260502045315 | 12 | 0.0 | 0.0 | 0.00 | 0.00 | 0.00 | 83 | 1014.7 | |
| 20260502044316 | 12 | 0.0 | 0.0 | 0.00 | 0.00 | 0.00 | 82 | 1014.6 | |
| 20260502043315 | 12 | 0.0 | 0.0 | 0.00 | 0.00 | 0.00 | 81 | 1014.5 | |
| 20260502042316 | 12 | 0.0 | 0.0 | 0.00 | 0.00 | 0.00 | 81 | 1014.5 | |
| 20260502041315 | 13 | 0.0 | 0.0 | 0.00 | 0.00 | 0.00 | 80 | 1014.3 | |
| 20260502040336 | 13 | 0.0 | 0.0 | 0.00 | 0.00 | 0.00 | 79 | 1014.3 | |
| 20260502035315 | 13 | 0.0 | 0.0 | 0.00 | 0.00 | 0.00 | 78 | 1014.1 | |
| 20260502034336 | 13 | 0.0 | 0.0 | 0.00 | 0.00 | 0.00 | 77 | 1013.9 | |
| 20260502033336 | 14 | 0.0 | 0.0 | 0.00 | 0.00 | 0.00 | 75 | 1013.8 | |
| 20260502032315 | 15 | 0.0 | 0.0 | 0.00 | 0.00 | 0.00 | 74 | 1013.6 | |
| 20260502031315 | 15 | 0.0 | 0.0 | 0.00 | 0.00 | 0.00 | 74 | 1013.4 | |
| 20260502030316 | 15 | 0.0 | 0.0 | 0.00 | 0.00 | 0.00 | 73 | 1013.4 |